Regional Weather Roundup
Issued by NWS

Home | Current Version | Previous Version | Text Only | Print | Product List | Glossary On
Versions: 1 2 3 4 5 6 7 8 9 10 11 12 13 14 15 16 17 18 19 20 21 22 23 24 25 26 27 28 29 30 31 32 33 34 35 36 37 38 39 40 41 42 43 44 45 46 47 48 49 50
000
ASUS44 KEWX 220911
RWRTX
SOUTH TEXAS REGIONAL WEATHER ROUNDUP
NATIONAL WEATHER SERVICE AUSTIN/SAN ANTONIO TX
300 AM CST SUN JAN 22 2017

NOTE: "FAIR" INDICATED FEW OR NO CLOUDS BELOW 12,000 FEET WITH NO
SIGNIFICANT WEATHER AND/OR OBSTRUCTIONS TO VISIBILITY.

* - THESE STATIONS ARE NOT NWS OR FAA STATIONS...AND ARE NOT SUBJECT
    TO NWS AND FAA QUALITY CONTROL.

TXZ171-172-183>190-221000-
TEXAS HILL COUNTRY AND EDWARDS PLATEAU

CITY           SKY/WX    TMP DP  RH WIND       PRES   REMARKS
JUNCTION       CLEAR     54  24  31 W20G37    29.64S
*LLANO         CLEAR     55  30  38 W17G25    29.62S
BURNET         CLEAR     55  27  34 W15G28      N/A
*HORSESHOE BAY CLEAR     57  28  32 W13G25    29.60R
*KERRVILLE     CLEAR     56  24  29 W21G36    29.66S
*FREDERICKSBRG CLEAR     54  24  31 W22G32    29.64S
*ROCKSPRINGS   CLEAR     52  27  37 NW23G36   29.70F
*BOERNE STAGE  CLEAR     55  25  30 W12G24    29.65F
*CASTROVILLE   CLEAR     60  29  31 W23G39    29.69R
HONDO          CLEAR     60  32  34 NW22G30   29.68S
*UVALDE        CLEAR     57  31  36 W20G28    29.72S
DEL RIO        CLEAR     59  22  24 W20G31    29.76R
LAUGHLIN AFB   CLEAR     60  33  36 NW25G35   29.75R
CARRIZO SPRGS  CLEAR     63  34  34 NW16G28   29.73R
*EAGLE PASS    SUNNY     59  30  33 W18G26    29.74S
$$

TXZ173-191>194-202-209-217>225-228-221000-
CENTRAL AND SOUTH CENTRAL TEXAS

CITY           SKY/WX    TMP DP  RH WIND       PRES   REMARKS
GEORGETOWN     PTCLDY    55  30  38 W13       29.56S
AUSTIN/BERGSTM CLEAR     61  29  29 W14G28    29.59R
AUSTIN/MABRY   PTCLDY    59  30  33 W9        29.60S
*AUSTIN/EXEC   PTCLDY    57  30  35 W14G23    29.58F
*LAGO VISTA    CLEAR     57  29  35 W17G24    29.58S
SAN MARCOS     CLEAR     59  28  31 W20G31    29.62R
NEW BRAUNFELS  CLEAR     60  28  29 W23G36    29.61S
RANDOLPH AFB   CLEAR     60  25  25 W18G29    29.63S
PT SAN ANTONIO CLEAR     62  28  28 W21G37    29.63S
SAN ANTONIO    PTCLDY    60  26  27 W25G39    29.65R
STINSON FIELD  CLEAR     63  27  25 W18G28    29.64R
*PLEASANTON    CLEAR     62  32  32 W18G28    29.69R
*LA GRANGE     CLOUDY    63  33  32 W12G18    29.58S
*GIDDINGS      CLOUDY    60  31  32 W13G21    29.59R
*GONZALES      CLOUDY    62  32  32 W17G28    29.62S
$$

TXZ163>164-176>182-195>201-210>213-226-227-235-221000-
SOUTHEAST TEXAS

CITY           SKY/WX    TMP DP  RH WIND       PRES   REMARKS
COLLEGE STN    CLOUDY    60  37  42 W16G24    29.53F
*BRYAN         CLOUDY    59  35  40 W13G25    29.54F
*CALDWELL      NOT AVBL
*CROCKETT      CLOUDY    57  45  62 SW13G20   29.52S
*BRENHAM       CLOUDY    63  33  32 W14       29.59R
HUNTSVILLE     MOCLDY    62  37  39 W13G24    29.51F
CONROE         CLOUDY    61  41  47 W10G20    29.54F
HOUSTON BUSH   CLOUDY    60  51  72 SW7       29.56R
HOUSTON HOBBY  CLOUDY    61  54  77 SW7       29.56S
*HOUSTON SW AP MOCLDY    61  49  64 W9        29.59R
PEARLAND       MOCLDY    63  53  70 W5        29.58F
HOUSTON HOOKS  LGT RAIN  59  49  69 W7        29.56S
ELLINGTON FLD  NOT AVBL
SUGAR LAND     MOCLDY    62  48  60 W13       29.58R
*HOUSTON EXEC  MOCLDY    63  37  39 W14G24    29.59R
*CLEVELAND MUN CLOUDY    56  54  91 W3        29.57R
*WHARTON       PTCLDY    62  38  41 W13       29.62R
*COLUMBUS      FAIR      63  28  26 W10G22    29.61F
*EAGLE LAKE    CLOUDY    65  38  36 W13G18    29.59F
$$

TXZ214>216-236>238-221000-
THE UPPER TEXAS COAST

CITY           SKY/WX    TMP DP  RH WIND       PRES   REMARKS
*ORANGE        LGT RAIN  59  56  91 CALM      29.58F
PORT ARTHUR    CLOUDY    59  54  83 VRB3      29.57R
GALVESTON      CLOUDY    66  53  63 W5        29.57F
ANGLETON       PTCLDY    58  52  80 SW5       29.59S
*BAY CITY      PTCLDY    60  47  61 W14       29.61S
PALACIOS       CLEAR     60  42  51 W9        29.62S
$$

TXZ229>234-239>247-221000-
TEXAS COASTAL BEND AND RIO GRANDE PLAINS

CITY           SKY/WX    TMP DP  RH WIND       PRES   REMARKS
VICTORIA       CLEAR     62  38  40 W10       29.64S
*BEEVILLE      CLEAR     63  36  37 NW14G22   29.68S
ROCKPORT       CLEAR     64  41  42 W10G16    29.66R
*PORT ARANSAS  CLEAR     64  42  44 NW13      29.66R
*PORT LAVACA   CLEAR     59  47  65 W9        29.64F
*INGLESIDE     CLEAR     62  42  46 NW20G26   29.66S
CORPUS CHRISTI CLEAR     64  38  38 NW14G22   29.66F
CORPUS NAS     PTCLDY    66  42  41 NW20      29.66S
*ROBSTOWN      CLEAR     65  36  33 NW31G40   29.67R
ALICE          CLEAR     64  33  31 NW15G24   29.69R
KINGSVILLE NAS CLEAR     65  37  35 NW18G24   29.68S
COTULLA        CLEAR     67  23  19 NW26G37   29.71R
*FAITH RANCH   CLEAR     64  27  24 NW23G38   29.75R
LAREDO         CLEAR     58  40  51 SW5       29.75R
$$

TXZ248>255-221000-
DEEP SOUTH TEXAS

CITY           SKY/WX    TMP DP  RH WIND       PRES   REMARKS
BROWNSVILLE    CLEAR     68  43  40 N16G24    29.67R
PORT ISABEL    CLEAR     67  42  40 N21G28    29.66R
*SOUTH PADRE   NOT AVBL
HARLINGEN      CLEAR     64  45  49 N18       29.67R
*HEBBRONVILLE  CLEAR     58  37  45 NW7       29.74R
MCALLEN        CLEAR     68  41  37 N18       29.70R
*WESLACO       CLEAR     65  42  42 N14G20    29.68R
FALFURRIAS     CLEAR     65  34  31 NW13G18   29.70R
EDINBURG       CLEAR     67  37  32 N17       29.70R
*ZAPATA        CLEAR     61  37  40 NW8       29.74R
$$

TXZ213>215-236>238-242>244-246-247-251-254-255-221000-
CMAN STATIONS

STATION/POSITION TIME  TEMP    WIND        PRES    WAVE
                       AIR SEA DIR/SP/G            HT/PER
                 (UTC) (F)     (DEG/KT/KT) (MB)    (FT/S)
SABINE PASS      0848   61 68  320/  9/ 12 1002.4
SEA RIM ST PARK  0900   59      CALM  /  1 1001.8
NORTH JETTY/GLS  0842   65 64  320/  3/  4   N/A
EAGLE POINT      0848   63 69  220/  3/  4 1001.0
MORGANS POINT    0848   62 66  220/  2/  4 1000.8
PORT O`CONNOR    0848   62     280/ 11/ 12 1003.0
PORT ARANSAS     0900   66 64  290/ 13/ 15 1004.4
MALAQUITE BEACH  0848   68 64  310/ 17/ 21 1005.3
BAFFIN BAY       0848   66 66  310/ 21/ 25 1004.7
PORT ISABEL      0848   69 68  360/ 23/ 28 1003.5
$$

GMZ080-GMZ150>470-221000-
OFFSHORE BUOY REPORTS

STATION/POSITION TIME  TEMP    WIND        PRES    WAVE
                       AIR SEA DIR/SP/G            HT/PER
                 (UTC) (F)     (DEG/KT/KT) (MB)    (FT/S)
20 E GALVESTON   0750   66 67  320/ 16/ 19 1001.3    3/ 7
90 E PT ARANSAS  0750   71 73  340/ 25/ 29 1000.9    4/ 4
35 NE PT MANSFLD 0750   71     340/ 25/ 31 1001.9    6/ 5
200 E PT ISABEL  0750   75 74  190/ 14/ 16  998.6    6/ 8
$$




USA.gov is the U.S. government's official web portal to all federal, state and local government web resources and services.